TimeEST,TemperatureF,Dew PointF,Humidity,Sea Level PressureIn,VisibilityMPH,Wind Direction,Wind SpeedMPH,Gust SpeedMPH,PrecipitationIn,Events,Conditions,WindDirDegrees,DateUTC
12:15 AM,35.1,23.5,63,29.94,10.0,Calm,Calm,-,N/A,,Overcast,0,2013-02-05 05:15:00
12:35 AM,36.7,24.6,62,29.93,10.0,Calm,Calm,-,N/A,,Overcast,0,2013-02-05 05:35:00
12:55 AM,35.8,23.7,62,29.92,10.0,Calm,Calm,-,N/A,,Scattered Clouds,0,2013-02-05 05:55:00
1:15 AM,35.4,22.8,60,29.92,10.0,Calm,Calm,-,N/A,,Scattered Clouds,0,2013-02-05 06:15:00
1:35 AM,33.1,20.5,60,29.91,10.0,Calm,Calm,-,N/A,,Mostly Cloudy,0,2013-02-05 06:35:00
1:55 AM,33.1,22.5,65,29.91,10.0,Calm,Calm,-,N/A,,Overcast,0,2013-02-05 06:55:00
2:15 AM,33.3,22.1,64,29.90,10.0,Calm,Calm,-,N/A,,Overcast,0,2013-02-05 07:15:00
2:35 AM,33.4,22.8,65,29.90,10.0,Calm,Calm,-,N/A,,Overcast,0,2013-02-05 07:35:00
2:55 AM,33.8,23.0,65,29.90,10.0,Calm,Calm,-,N/A,,Overcast,0,2013-02-05 07:55:00
3:15 AM,34.3,23.7,65,29.90,10.0,Calm,Calm,-,N/A,,Overcast,0,2013-02-05 08:15:00
3:35 AM,34.2,25.0,69,29.90,10.0,Calm,Calm,-,N/A,,Overcast,0,2013-02-05 08:35:00
3:55 AM,32.2,23.7,71,29.89,10.0,Calm,Calm,-,N/A,,Mostly Cloudy,0,2013-02-05 08:55:00
4:15 AM,32.0,21.2,64,29.89,10.0,Calm,Calm,-,N/A,,Mostly Cloudy,0,2013-02-05 09:15:00
4:55 AM,31.1,22.6,71,29.89,10.0,Calm,Calm,-,N/A,,Overcast,0,2013-02-05 09:55:00
5:15 AM,31.1,21.9,69,29.89,10.0,Calm,Calm,-,N/A,,Overcast,0,2013-02-05 10:15:00
5:35 AM,32.0,24.6,74,29.90,10.0,Calm,Calm,-,N/A,,Mostly Cloudy,0,2013-02-05 10:35:00
5:55 AM,31.1,21.9,69,29.90,10.0,North,3.5,-,N/A,,Mostly Cloudy,10,2013-02-05 10:55:00
6:15 AM,31.8,22.6,69,29.90,10.0,Calm,Calm,-,N/A,,Overcast,0,2013-02-05 11:15:00
6:35 AM,32.0,23.4,70,29.90,10.0,Calm,Calm,-,N/A,,Overcast,0,2013-02-05 11:35:00
6:55 AM,33.1,24.6,71,29.91,10.0,Calm,Calm,-,N/A,,Overcast,0,2013-02-05 11:55:00
7:15 AM,33.8,26.1,73,29.91,10.0,Calm,Calm,-,N/A,,Overcast,0,2013-02-05 12:15:00
7:35 AM,33.8,26.4,74,29.91,10.0,Calm,Calm,-,N/A,,Overcast,0,2013-02-05 12:35:00
7:55 AM,33.4,25.3,72,29.91,10.0,Calm,Calm,-,N/A,,Scattered Clouds,0,2013-02-05 12:55:00
8:15 AM,36.7,29.3,75,29.91,10.0,Calm,Calm,-,N/A,,Clear,0,2013-02-05 13:15:00
8:35 AM,40.3,32.7,74,29.91,10.0,North,3.5,-,N/A,,Clear,360,2013-02-05 13:35:00
8:55 AM,41.5,31.3,67,29.93,10.0,Calm,Calm,-,N/A,,Clear,0,2013-02-05 13:55:00
9:15 AM,41.5,31.1,66,29.93,10.0,Calm,Calm,-,N/A,,Clear,0,2013-02-05 14:15:00
9:35 AM,40.6,29.7,65,29.93,10.0,South,3.5,-,N/A,,Mostly Cloudy,170,2013-02-05 14:35:00
9:55 AM,41.5,30.2,64,29.93,10.0,SSE,3.5,-,N/A,,Overcast,150,2013-02-05 14:55:00
10:15 AM,42.3,30.6,63,29.93,10.0,Calm,Calm,-,N/A,,Overcast,0,2013-02-05 15:15:00
10:55 AM,45.3,32.7,61,29.93,10.0,Calm,Calm,-,N/A,,Overcast,0,2013-02-05 15:55:00
11:55 AM,51.4,36.1,56,29.92,10.0,Calm,Calm,-,N/A,,Clear,0,2013-02-05 16:55:00
12:15 PM,54.1,32.9,45,29.91,10.0,SSW,5.8,-,N/A,,Clear,210,2013-02-05 17:15:00
12:35 PM,55.0,32.0,42,29.90,10.0,South,5.8,-,N/A,,Clear,190,2013-02-05 17:35:00
12:55 PM,55.8,32.4,41,29.90,10.0,SW,5.8,-,N/A,,Clear,220,2013-02-05 17:55:00
1:15 PM,59.0,33.3,38,29.89,10.0,WSW,8.1,-,N/A,,Clear,250,2013-02-05 18:15:00
1:55 PM,58.8,33.4,38,29.88,10.0,WNW,12.7,18.4,N/A,,Scattered Clouds,290,2013-02-05 18:55:00
2:15 PM,58.1,32.5,38,29.88,10.0,NW,15.0,20.7,N/A,,Clear,310,2013-02-05 19:15:00
2:35 PM,57.4,31.8,38,29.89,10.0,WNW,16.1,21.9,N/A,,Clear,300,2013-02-05 19:35:00
2:55 PM,57.2,31.6,38,29.89,10.0,WNW,12.7,20.7,N/A,,Clear,290,2013-02-05 19:55:00
3:15 PM,57.0,30.7,37,29.90,10.0,WNW,12.7,23.0,N/A,,Clear,290,2013-02-05 20:15:00
3:35 PM,55.8,31.8,40,29.90,10.0,WNW,10.4,23.0,N/A,,Clear,300,2013-02-05 20:35:00
3:55 PM,54.7,30.4,40,29.90,10.0,WNW,17.3,24.2,N/A,,Clear,300,2013-02-05 20:55:00
4:15 PM,53.6,31.8,44,29.90,10.0,WNW,10.4,16.1,N/A,,Clear,290,2013-02-05 21:15:00
4:55 PM,52.2,32.0,46,29.91,10.0,WNW,4.6,-,N/A,,Clear,300,2013-02-05 21:55:00
5:15 PM,52.3,31.8,46,29.91,10.0,WNW,10.4,-,N/A,,Clear,300,2013-02-05 22:15:00
6:15 PM,47.3,31.3,54,29.92,10.0,WNW,5.8,-,N/A,,Clear,300,2013-02-05 23:15:00
6:35 PM,46.9,32.0,56,29.92,10.0,WNW,5.8,-,N/A,,Clear,290,2013-02-05 23:35:00
6:55 PM,45.9,30.9,56,29.93,10.0,Calm,Calm,-,N/A,,Clear,0,2013-02-05 23:55:00
7:15 PM,45.1,31.5,59,29.93,10.0,WNW,3.5,-,N/A,,Clear,300,2013-02-06 00:15:00
7:35 PM,43.7,28.4,55,29.93,10.0,Calm,Calm,-,N/A,,Clear,0,2013-02-06 00:35:00
7:55 PM,44.1,30.9,60,29.93,10.0,NNW,3.5,-,N/A,,Clear,330,2013-02-06 00:55:00
8:15 PM,44.6,30.9,59,29.93,10.0,NW,3.5,-,N/A,,Clear,320,2013-02-06 01:15:00
8:35 PM,43.0,29.3,59,29.93,10.0,Calm,Calm,-,N/A,,Clear,0,2013-02-06 01:35:00
8:55 PM,40.5,24.3,52,29.93,10.0,Calm,Calm,-,N/A,,Clear,0,2013-02-06 01:55:00
9:15 PM,40.1,27.9,62,29.93,10.0,Calm,Calm,-,N/A,,Clear,0,2013-02-06 02:15:00
9:35 PM,37.0,22.3,55,29.94,10.0,Calm,Calm,-,N/A,,Clear,0,2013-02-06 02:35:00
9:55 PM,34.9,20.3,55,29.94,10.0,Calm,Calm,-,N/A,,Clear,0,2013-02-06 02:55:00
10:15 PM,33.8,20.8,59,29.94,10.0,Calm,Calm,-,N/A,,Clear,0,2013-02-06 03:15:00
10:35 PM,33.4,21.2,61,29.94,10.0,Calm,Calm,-,N/A,,Clear,0,2013-02-06 03:35:00
10:55 PM,34.0,24.4,68,29.95,10.0,Calm,Calm,-,N/A,,Clear,0,2013-02-06 03:55:00
11:15 PM,33.8,23.9,67,29.95,10.0,Calm,Calm,-,N/A,,Clear,0,2013-02-06 04:15:00
11:35 PM,33.4,24.6,70,29.95,10.0,Calm,Calm,-,N/A,,Clear,0,2013-02-06 04:35:00
11:55 PM,33.3,25.5,73,29.95,10.0,Calm,Calm,-,N/A,,Clear,0,2013-02-06 04:55:00